Flag for Germany Weather past 2 weeks in Wetzlar, Hesse, Germany

Now
53 °F

Clear.


Feels Like: 53 °F
Forecast: 64 / 88 °F
Wind: 1 mph from Northeast

Location: Giessen

Current Time: Aug 29, 2015 at 3:02:11 AM

Latest Report: Aug 29, 2015 at 2:00 AM


Visibility: 0 mi

Pressure: 30.22 "Hg

Humidity: 99%

Dew point: 53 °F

Location of WetzlarLocation

Historic Weather in Wetzlar — Graph

°F

Wetzlar temperature yesterday

Maximum temperature yesterday: 68 °F (at 5:00 PM)
Minimum temperature yesterday: 56 °F (at 7:00 AM)
Average temperature yesterday: 61 °F

Past Weeks' High & Low Weather Summary

 TemperatureHumidityPressure
High81 °F (Aug 14, 6:00 PM)100% (Aug 21, 8:00 AM)30.30 "Hg (Aug 21, 8:00 AM)
Low49 °F (Aug 19, 7:00 AM)28% (Aug 23, 5:00 PM)29.65 "Hg (Aug 24, 5:00 PM)
Average64 °F74%29.96 "Hg
* Reported Aug 14 2:00 AM — Aug 29 2:00 AM, Wetzlar, Weather by CustomWeather, © 2015

Note: Actual official high and low records may vary slightly from our data, if they occured in-between our weather recording intervals... More about our weather records

Advertising

Wetzlar weather history for previous 24 hours

 ConditionsComfort  
Time TempWeatherWind HumidityBarometerVisibility
2:00 AM
Sat, Aug 29
53 °FClear.1 mph99%30.22 "Hg1 mi
1:00 AM54 °FClear.1 mph98%30.21 "Hg5 mi
12:00 AM56 °FClear.1 mph95%30.19 "Hg17 mi
11:00 PM
Fri, Aug 28
57 °FClear.1 mph91%30.19 "Hg17 mi
10:00 PM60 °FClear.3 mph87%30.16 "Hg34 mi
9:00 PM62 °FClear.2 mph86%30.14 "Hg37 mi
8:00 PM65 °FSunny.2 mph78%30.12 "Hg43 mi
7:00 PM67 °FPartly sunny.2 mph68%30.10 "Hg43 mi
6:00 PM67 °FOvercast.3 mph71%30.10 "Hg43 mi
5:00 PM68 °FOvercast.3 mph71%30.09 "Hg43 mi
4:00 PM67 °FOvercast.3 mph71%30.09 "Hg43 mi
3:00 PM67 °FOvercast.3 mph72%30.08 "Hg43 mi
2:00 PM67 °FOvercast.2 mph74%30.07 "Hg43 mi
1:00 PM64 °FOvercast.2 mph78%30.06 "Hg43 mi
12:00 PM63 °FOvercast.1 mph74%30.05 "Hg34 mi
11:00 AM60 °FOvercast.No wind81%30.04 "Hg34 mi
10:00 AM59 °FLow clouds.1 mph87%30.04 "Hg43 mi
9:00 AM58 °FLight rain. Overcast.1 mph91%30.02 "Hg37 mi
8:00 AM57 °FOvercast.1 mph92%30.01 "Hg31 mi
7:00 AM56 °FLow clouds.2 mph94%29.99 "Hg43 mi
6:00 AM57 °FDrizzle. Overcast.2 mph94%29.97 "Hg43 mi
5:00 AM57 °FLight rain. Overcast.2 mph93%29.94 "Hg43 mi
4:00 AM58 °FLight rain. Overcast.5 mph94%29.94 "Hg16 mi
3:00 AM58 °FLight rain. Overcast.3 mph94%29.93 "Hg16 mi
Weather by CustomWeather, © 2015

See weather overviewHow to use our weather pages